Location: Gallinara
(44.0333°N, 8.2333°E)
Time: 11:14:47
(UTC+00:00)

Cosmos 1570 Rocket - Pass Details

Date: 25 September 2020
Orbit: 763 x 788 km, 74.1° (Epoch: 24 October)

Event Time Altitude Azimuth Distance (km) Brightness Sun altitude
Exits shadow 03:58:30 18° 225° (SW) 1,854 5.5 -15.0°
Maximum altitude 04:02:19 51° 295° (WNW) 988 4.3 -14.3°
Drops below altitude 10° 04:07:32 10° 11° (NNE) 2,357 6.8 -13.4°
Sets 04:10:01 0° 17° (NNE) 3,292 7.7 -13.0°
